﻿#観測日時,平均風速,平均風向,最大風速,最大風速発生風向,最大瞬間風速,最大瞬間風速発生風向
#(年月日),(m/s)   ,(16方位),(m/s)   ,(16方位)        ,(m/s)       ,(16方位)            
2020/10/22 0:01,2.7,3,2.8,3,4.2,3
2020/10/22 0:02,2.7,3,2.8,3,4.7,2
2020/10/22 0:03,2.6,3,2.7,3,5,3
2020/10/22 0:04,2.7,3,2.7,3,4.1,2
2020/10/22 0:05,2.6,3,2.7,3,3.1,3
2020/10/22 0:06,2.5,3,2.5,3,2.7,3
2020/10/22 0:07,2.4,3,2.5,2,2.6,3
2020/10/22 0:08,2.5,3,2.5,2,4.3,4
2020/10/22 0:09,2.4,3,2.6,3,3.5,3
2020/10/22 0:10,2.4,3,2.4,3,3.1,3
2020/10/22 0:11,2.4,3,2.4,3,3.3,3
2020/10/22 0:12,2.3,3,2.4,3,3.5,3
2020/10/22 0:13,2.1,3,2.3,3,2.1,4
2020/10/22 0:14,2,3,2.1,3,2,3
2020/10/22 0:15,1.9,3,2,3,2.5,1
2020/10/22 0:16,1.9,3,1.9,3,2.6,3
2020/10/22 0:17,2,3,2,3,3.2,2
2020/10/22 0:18,1.9,3,2,3,3.7,3
2020/10/22 0:19,2,3,2,3,3.6,3
2020/10/22 0:20,1.9,3,2,3,3.7,3
2020/10/22 0:21,1.9,3,1.9,3,3.2,4
2020/10/22 0:22,1.9,3,1.9,3,3.1,5
2020/10/22 0:23,2.1,3,2.1,3,3.2,3
2020/10/22 0:24,2.2,3,2.2,3,3.8,4
2020/10/22 0:25,2.4,3,2.4,3,3.9,3
2020/10/22 0:26,2.5,3,2.5,3,3.7,3
2020/10/22 0:27,2.5,3,2.6,3,3.6,3
2020/10/22 0:28,2.5,3,2.5,3,2.6,4
2020/10/22 0:29,2.5,3,2.5,3,4.3,4
2020/10/22 0:30,2.6,3,2.6,3,4.2,5
2020/10/22 0:31,2.7,3,2.7,3,4.4,4
2020/10/22 0:32,2.7,3,2.7,3,3.2,2
2020/10/22 0:33,2.6,3,2.7,3,2.2,3
2020/10/22 0:34,2.5,3,2.6,3,2.5,4
2020/10/22 0:35,2.3,3,2.5,3,2.4,5
2020/10/22 0:36,2.4,3,2.4,3,3.6,3
2020/10/22 0:37,2.4,3,2.4,3,3.7,3
2020/10/22 0:38,2.4,3,2.4,3,3.6,3
2020/10/22 0:39,2.4,3,2.4,3,3.2,3
2020/10/22 0:40,2.2,3,2.3,3,2.4,4
2020/10/22 0:41,2.1,3,2.2,3,2.7,5
2020/10/22 0:42,2.1,3,2.1,3,2.6,4
2020/10/22 0:43,2,3,2.1,3,2.4,1
2020/10/22 0:44,2.2,3,2.2,3,5.5,3
2020/10/22 0:45,2.3,3,2.3,3,3.8,5
2020/10/22 0:46,2.2,3,2.3,3,3.1,3
2020/10/22 0:47,2.2,3,2.2,3,3.6,2
2020/10/22 0:48,2.1,3,2.2,3,3.9,3
2020/10/22 0:49,2.2,3,2.2,3,4.2,3
2020/10/22 0:50,2.3,3,2.3,3,3.3,3
2020/10/22 0:51,2.3,2,2.3,3,2.7,2
2020/10/22 0:52,2.2,2,2.3,3,1.6,3
2020/10/22 0:53,2.2,2,2.2,3,2,2
2020/10/22 0:54,2,2,2.2,3,2.4,3
2020/10/22 0:55,1.9,2,1.9,3,2.7,2
2020/10/22 0:56,1.8,2,1.9,3,3.3,2
2020/10/22 0:57,1.8,2,1.8,3,2.6,16
2020/10/22 0:58,1.7,2,1.8,3,3.2,4
2020/10/22 0:59,1.7,2,1.7,3,4.1,3
2020/10/22 1:00,1.6,2,1.7,3,3,4
2020/10/22 1:01,1.6,2,1.6,2,3.1,3
2020/10/22 1:02,1.7,2,1.7,2,3.1,3
2020/10/22 1:03,1.8,3,1.8,2,3.8,3
2020/10/22 1:04,1.9,3,1.9,2,5,1
2020/10/22 1:05,2,3,2,3,3.1,3
2020/10/22 1:06,2,3,2,3,2.7,3
2020/10/22 1:07,2.1,3,2.1,3,3.2,3
2020/10/22 1:08,2.1,3,2.1,3,3.1,2
2020/10/22 1:09,2,3,2.1,3,2.7,2
2020/10/22 1:10,2,3,2,3,2.9,3
2020/10/22 1:11,2.1,3,2.1,3,3.5,3
2020/10/22 1:12,2.1,3,2.1,3,3.5,3
2020/10/22 1:13,2.1,3,2.1,3,2.6,3
2020/10/22 1:14,2,3,2.1,3,2.4,3
2020/10/22 1:15,2,3,2,3,2.2,3
2020/10/22 1:16,2,3,2,3,2.7,2
2020/10/22 1:17,1.9,3,2,3,2.2,2
2020/10/22 1:18,1.8,3,1.9,3,1.9,16
2020/10/22 1:19,1.7,3,1.8,3,2.2,4
2020/10/22 1:20,1.9,3,1.9,3,3.1,4
2020/10/22 1:21,1.8,3,1.9,3,3,2
2020/10/22 1:22,1.8,3,1.8,3,3.2,2
2020/10/22 1:23,1.8,3,1.8,3,3.2,5
2020/10/22 1:24,1.8,3,1.8,3,2.2,4
2020/10/22 1:25,1.9,3,1.9,3,2.4,3
2020/10/22 1:26,1.8,3,1.9,3,2,3
2020/10/22 1:27,1.7,3,1.8,3,1.6,3
2020/10/22 1:28,1.7,3,1.7,3,1,2
2020/10/22 1:29,1.7,3,1.7,3,1.9,3
2020/10/22 1:30,1.5,3,1.7,3,1.6,3
2020/10/22 1:31,1.4,3,1.5,3,1.8,3
2020/10/22 1:32,1.3,3,1.4,3,1.9,3
2020/10/22 1:33,1.2,3,1.3,3,2.4,3
2020/10/22 1:34,1.2,3,1.2,3,2.2,2
2020/10/22 1:35,1.3,3,1.3,3,3.6,3
2020/10/22 1:36,1.4,3,1.4,3,3.1,3
2020/10/22 1:37,1.6,3,1.6,3,3.1,3
2020/10/22 1:38,1.8,3,1.8,3,3.2,3
2020/10/22 1:39,1.8,3,1.8,3,2.5,3
2020/10/22 1:40,1.9,3,1.9,3,2.7,3
2020/10/22 1:41,1.9,3,1.9,3,2.6,3
2020/10/22 1:42,2,3,2,3,3,3
2020/10/22 1:43,2.1,3,2.1,3,4.2,3
2020/10/22 1:44,2.3,3,2.3,3,4.4,3
2020/10/22 1:45,2.3,3,2.3,3,4.3,3
2020/10/22 1:46,2.4,3,2.4,3,4.5,3
2020/10/22 1:47,2.6,3,2.6,3,4.9,3
2020/10/22 1:48,2.6,3,2.6,3,5,4
2020/10/22 1:49,2.8,3,2.8,3,4.2,4
2020/10/22 1:50,2.9,3,2.9,3,3.3,2
2020/10/22 1:51,2.9,3,2.9,3,4.1,3
2020/10/22 1:52,3,3,3,3,5,3
2020/10/22 1:53,3,3,3,3,5,3
2020/10/22 1:54,2.8,3,3,3,3,3
2020/10/22 1:55,2.7,3,2.8,3,3.2,3
2020/10/22 1:56,2.6,3,2.7,3,2.9,2
2020/10/22 1:57,2.4,3,2.5,3,2.7,2
2020/10/22 1:58,2.2,3,2.4,3,2.2,2
2020/10/22 1:59,2.1,2,2.2,3,3.2,3
2020/10/22 2:00,2.1,3,2.1,3,4.1,5
2020/10/22 2:01,2.1,2,2.1,3,3.5,2
2020/10/22 2:02,2,2,2.1,3,3.6,2
2020/10/22 2:03,1.9,2,1.9,3,2.5,1
2020/10/22 2:04,1.9,2,1.9,3,2.5,2
2020/10/22 2:05,1.8,2,1.9,3,2.9,2
2020/10/22 2:06,1.8,2,1.8,3,2.5,2
2020/10/22 2:07,1.8,2,1.8,3,2.9,2
2020/10/22 2:08,1.7,2,1.8,3,1.8,2
2020/10/22 2:09,1.6,2,1.7,2,1,2
2020/10/22 2:10,1.4,2,1.6,3,1.8,3
2020/10/22 2:11,1.3,2,1.4,2,1.3,3
2020/10/22 2:12,1.2,2,1.3,2,1.5,2
2020/10/22 2:13,1.2,2,1.2,2,2.2,4
2020/10/22 2:14,1.2,2,1.2,2,2,3
2020/10/22 2:15,1.2,2,1.2,2,1.6,2
2020/10/22 2:16,1.1,2,1.2,2,0.9,2
2020/10/22 2:17,1,2,1.1,2,1,1
2020/10/22 2:18,1,2,1,2,2,2
2020/10/22 2:19,1,2,1,2,2.2,2
2020/10/22 2:20,1.1,2,1.1,2,2.5,4
2020/10/22 2:21,1.2,2,1.2,2,2,3
2020/10/22 2:22,1.3,2,1.3,2,2.9,3
2020/10/22 2:23,1.3,2,1.4,2,2.9,2
2020/10/22 2:24,1.4,2,1.4,2,2.5,4
2020/10/22 2:25,1.5,2,1.5,2,2,4
2020/10/22 2:26,1.5,2,1.5,2,1.9,3
2020/10/22 2:27,1.6,3,1.6,3,2.1,5
2020/10/22 2:28,1.5,3,1.6,3,2,4
2020/10/22 2:29,1.5,3,1.6,3,2,4
2020/10/22 2:30,1.4,3,1.5,3,1.5,4
2020/10/22 2:31,1.4,3,1.4,3,1.8,3
2020/10/22 2:32,1.3,3,1.4,3,1.5,3
2020/10/22 2:33,1.2,3,1.3,3,1.5,1
2020/10/22 2:34,1.1,3,1.2,3,2.6,3
2020/10/22 2:35,1.2,2,1.2,3,2.5,3
2020/10/22 2:36,1.2,2,1.2,3,2.5,3
2020/10/22 2:37,1.2,2,1.2,3,2.2,2
2020/10/22 2:38,1.4,2,1.4,3,3.5,3
2020/10/22 2:39,1.4,2,1.4,3,2.2,4
2020/10/22 2:40,1.6,2,1.6,2,3,3
2020/10/22 2:41,1.7,2,1.7,2,2.4,2
2020/10/22 2:42,1.8,2,1.8,2,2.7,3
2020/10/22 2:43,1.8,2,1.8,2,2.5,3
2020/10/22 2:44,1.9,2,1.9,2,2.9,3
2020/10/22 2:45,1.8,2,1.9,2,2.2,3
2020/10/22 2:46,1.8,3,1.8,2,2.1,3
2020/10/22 2:47,1.9,2,1.9,2,2.7,2
2020/10/22 2:48,1.9,2,1.9,2,4.1,3
2020/10/22 2:49,2,2,2,2,3.9,3
2020/10/22 2:50,2,2,2,2,3.2,3
2020/10/22 2:51,2,2,2,2,3.3,3
2020/10/22 2:52,2.1,3,2.1,2,3.1,3
2020/10/22 2:53,2.1,3,2.1,2,3.1,2
2020/10/22 2:54,2.1,3,2.1,2,3.5,3
2020/10/22 2:55,2.2,2,2.2,2,3.9,2
2020/10/22 2:56,2.3,2,2.3,2,3.5,2
2020/10/22 2:57,2.4,2,2.4,3,3.3,3
2020/10/22 2:58,2.4,3,2.4,3,4.2,2
2020/10/22 2:59,2.4,3,2.4,3,3.7,4
2020/10/22 3:00,2.4,3,2.4,3,2.5,2
2020/10/22 3:01,2.3,3,2.4,3,2.4,4
2020/10/22 3:02,2.4,3,2.4,3,3.8,3
2020/10/22 3:03,2.4,3,2.4,3,3,3
2020/10/22 3:04,2.3,3,2.4,3,2.9,2
2020/10/22 3:05,2.2,3,2.3,3,2.4,1
2020/10/22 3:06,2.1,3,2.2,3,2.7,2
2020/10/22 3:07,2,3,2.1,2,3,2
2020/10/22 3:08,2,3,2,3,3.6,3
2020/10/22 3:09,1.9,3,2,3,3.5,3
2020/10/22 3:10,2,3,2,3,3.7,3
2020/10/22 3:11,2.1,3,2.1,3,2.7,3
2020/10/22 3:12,2,3,2.1,3,2.6,3
2020/10/22 3:13,2,3,2,3,3.5,3
2020/10/22 3:14,2,2,2,3,3.3,3
2020/10/22 3:15,2,3,2,3,2.6,3
2020/10/22 3:16,2.1,2,2.1,3,2.4,2
2020/10/22 3:17,2.1,3,2.1,3,3.3,2
2020/10/22 3:18,2.1,3,2.1,3,3.7,2
2020/10/22 3:19,2,2,2.1,3,2.9,2
2020/10/22 3:20,1.9,2,2,3,2.4,3
2020/10/22 3:21,1.8,2,1.9,3,3.2,1
2020/10/22 3:22,1.9,2,1.9,3,2.7,1
2020/10/22 3:23,1.9,2,1.9,3,3.3,3
2020/10/22 3:24,1.8,2,1.8,3,2.9,4
2020/10/22 3:25,1.8,2,1.8,3,2.6,1
2020/10/22 3:26,1.7,2,1.8,3,2.6,2
2020/10/22 3:27,1.7,2,1.8,3,3.1,3
2020/10/22 3:28,1.7,2,1.7,3,3.2,2
2020/10/22 3:29,1.7,2,1.7,2,3,3
2020/10/22 3:30,1.8,2,1.8,2,3.1,1
2020/10/22 3:31,1.9,2,1.9,2,3.8,2
2020/10/22 3:32,1.9,2,1.9,2,4.1,2
2020/10/22 3:33,1.9,2,1.9,2,2.7,3
2020/10/22 3:34,1.9,2,1.9,2,2.4,1
2020/10/22 3:35,1.9,2,1.9,2,3.5,2
2020/10/22 3:36,2,2,2,2,3.7,3
2020/10/22 3:37,2,2,2,2,2.6,2
2020/10/22 3:38,1.9,2,2,2,3,1
2020/10/22 3:39,1.9,2,2,2,2.6,2
2020/10/22 3:40,1.9,2,1.9,2,3.3,2
2020/10/22 3:41,2,2,2,2,3.2,1
2020/10/22 3:42,1.9,2,2,2,3,2
2020/10/22 3:43,1.9,2,1.9,2,3,1
2020/10/22 3:44,2,2,2,2,2.9,3
2020/10/22 3:45,2,2,2,2,3.1,2
2020/10/22 3:46,2,2,2,2,4.4,2
2020/10/22 3:47,1.9,2,2,2,2.4,2
2020/10/22 3:48,2,2,2,2,3.8,1
2020/10/22 3:49,2.1,2,2.1,2,3.5,16
2020/10/22 3:50,2,2,2.1,2,2.7,1
2020/10/22 3:51,1.9,2,2,2,2.6,3
2020/10/22 3:52,1.9,2,1.9,2,2.2,1
2020/10/22 3:53,1.9,2,1.9,2,3,2
2020/10/22 3:54,2,2,2,2,3.3,2
2020/10/22 3:55,2,2,2,2,2.4,16
2020/10/22 3:56,2,2,2,2,3.2,2
2020/10/22 3:57,2,2,2,2,2.5,1
2020/10/22 3:58,1.9,2,2,2,2.9,2
2020/10/22 3:59,1.9,2,1.9,2,3.2,1
2020/10/22 4:00,2,2,2,2,3.7,2
2020/10/22 4:01,2.1,2,2.1,2,4.2,1
2020/10/22 4:02,2.1,2,2.1,2,3.2,2
2020/10/22 4:03,2.1,2,2.1,2,3.8,2
2020/10/22 4:04,2.1,2,2.1,2,3.5,2
2020/10/22 4:05,2.2,2,2.2,2,3.2,2
2020/10/22 4:06,2.2,2,2.2,2,3.5,2
2020/10/22 4:07,2.2,2,2.2,2,2.9,3
2020/10/22 4:08,2.2,2,2.2,2,2.4,3
2020/10/22 4:09,2.1,2,2.2,2,3,2
2020/10/22 4:10,2,2,2.1,2,2.4,1
2020/10/22 4:11,1.9,2,2,2,2.4,2
2020/10/22 4:12,1.9,2,1.9,2,2,2
2020/10/22 4:13,1.8,2,1.9,2,2.5,2
2020/10/22 4:14,1.7,2,1.8,2,2.7,2
2020/10/22 4:15,1.6,2,1.7,2,2.9,1
2020/10/22 4:16,1.6,2,1.6,2,3,3
2020/10/22 4:17,1.6,2,1.6,2,2.6,2
2020/10/22 4:18,1.5,2,1.6,2,2.1,4
2020/10/22 4:19,1.5,2,1.5,2,2.5,3
2020/10/22 4:20,1.6,2,1.6,2,3.2,3
2020/10/22 4:21,1.6,2,1.6,2,2.7,3
2020/10/22 4:22,1.7,2,1.7,2,4.4,3
2020/10/22 4:23,2,2,2,2,5,3
2020/10/22 4:24,2,2,2,2,3.5,3
2020/10/22 4:25,2.1,3,2.1,2,3.5,2
2020/10/22 4:26,2.1,3,2.1,2,2.7,3
2020/10/22 4:27,2.2,3,2.2,3,2.9,3
2020/10/22 4:28,2.2,2,2.2,3,2.7,1
2020/10/22 4:29,2.2,2,2.3,2,3.1,2
2020/10/22 4:30,2.2,2,2.2,2,2.9,2
2020/10/22 4:31,2.2,2,2.2,2,3.2,3
2020/10/22 4:32,2.1,2,2.2,2,3.6,2
2020/10/22 4:33,2,2,2.1,2,4.4,3
2020/10/22 4:34,2,2,2.1,2,4.9,3
2020/10/22 4:35,2,2,2,2,3.1,2
2020/10/22 4:36,1.9,2,2,2,2.7,3
2020/10/22 4:37,2,2,2,2,4.7,3
2020/10/22 4:38,2.1,2,2.1,2,3.7,3
2020/10/22 4:39,2.1,2,2.1,2,2.6,3
2020/10/22 4:40,2.1,2,2.1,2,2.6,16
2020/10/22 4:41,2.1,2,2.1,2,2.6,3
2020/10/22 4:42,2.1,2,2.1,2,2.9,1
2020/10/22 4:43,2,2,2.1,2,2.5,3
2020/10/22 4:44,1.9,2,1.9,2,2.2,2
2020/10/22 4:45,1.8,2,1.9,2,1.8,2
2020/10/22 4:46,1.8,2,1.8,2,2.2,15
2020/10/22 4:47,1.7,2,1.8,2,3,3
2020/10/22 4:48,1.6,2,1.7,2,3.6,4
2020/10/22 4:49,1.6,2,1.6,2,3.1,3
2020/10/22 4:50,1.6,2,1.6,2,2.1,3
2020/10/22 4:51,1.6,2,1.6,2,2.1,1
2020/10/22 4:52,1.5,2,1.5,2,2,3
2020/10/22 4:53,1.5,2,1.5,2,2.4,2
2020/10/22 4:54,1.4,2,1.5,2,2,1
2020/10/22 4:55,1.5,2,1.5,2,1.8,3
2020/10/22 4:56,1.5,2,1.5,2,2.2,3
2020/10/22 4:57,1.4,2,1.5,2,2.5,1
2020/10/22 4:58,1.4,2,1.5,2,2.9,16
2020/10/22 4:59,1.4,1,1.4,2,2.5,1
2020/10/22 5:00,1.4,1,1.4,2,1.9,16
2020/10/22 5:01,1.3,1,1.4,2,1.8,1
2020/10/22 5:02,1.3,1,1.4,2,2.4,1
2020/10/22 5:03,1.2,1,1.3,2,1.4,15
2020/10/22 5:04,1.2,1,1.2,2,1.4,1
2020/10/22 5:05,1.2,1,1.2,2,2.1,3
2020/10/22 5:06,1.2,1,1.2,2,1.8,3
2020/10/22 5:07,1.2,1,1.2,2,2,16
2020/10/22 5:08,1,1,1.2,2,1.6,16
2020/10/22 5:09,1,1,1,1,2.2,16
2020/10/22 5:10,1.2,1,1.2,1,3.1,16
2020/10/22 5:11,1.3,1,1.3,1,3.1,16
2020/10/22 5:12,1.4,1,1.4,1,3.2,16
2020/10/22 5:13,1.6,1,1.6,1,3.2,2
2020/10/22 5:14,1.6,1,1.6,1,2.6,1
2020/10/22 5:15,1.6,1,1.7,1,1.8,3
2020/10/22 5:16,1.5,1,1.6,1,1.5,2
2020/10/22 5:17,1.6,1,1.6,1,2.5,2
2020/10/22 5:18,1.7,1,1.7,1,1.8,16
2020/10/22 5:19,1.6,1,1.7,1,2.9,3
2020/10/22 5:20,1.6,1,1.6,1,2.9,2
2020/10/22 5:21,1.5,1,1.6,1,2.5,1
2020/10/22 5:22,1.4,1,1.5,1,2,3
2020/10/22 5:23,1.3,1,1.4,1,2,2
2020/10/22 5:24,1.3,1,1.3,1,2.2,1
2020/10/22 5:25,1.4,1,1.4,1,2.6,1
2020/10/22 5:26,1.5,1,1.5,1,3.7,16
2020/10/22 5:27,1.6,1,1.6,1,3.6,16
2020/10/22 5:28,1.7,1,1.7,1,4.2,2
2020/10/22 5:29,1.9,1,1.9,1,5,2
2020/10/22 5:30,2,1,2,1,3.9,1
2020/10/22 5:31,2.1,1,2.1,1,4.4,2
2020/10/22 5:32,2.2,1,2.2,1,4.1,2
2020/10/22 5:33,2.3,1,2.3,1,4.2,1
2020/10/22 5:34,2.4,1,2.4,1,4.3,2
2020/10/22 5:35,2.6,1,2.6,1,5.5,1
2020/10/22 5:36,2.8,1,2.8,1,5.8,2
2020/10/22 5:37,2.9,1,2.9,1,4.9,1
2020/10/22 5:38,3,1,3,1,5.2,1
2020/10/22 5:39,3.1,1,3.1,1,6.2,1
2020/10/22 5:40,3.2,1,3.2,1,5,2
2020/10/22 5:41,3.2,2,3.2,1,6.4,2
2020/10/22 5:42,3.3,2,3.3,2,5.1,2
2020/10/22 5:43,3.5,2,3.5,2,7,2
2020/10/22 5:44,3.6,2,3.6,2,7.1,1
2020/10/22 5:45,3.6,2,3.7,2,5.6,1
2020/10/22 5:46,3.6,2,3.6,2,5.4,2
2020/10/22 5:47,3.7,2,3.7,2,8.1,2
2020/10/22 5:48,3.7,2,3.7,2,5.8,16
2020/10/22 5:49,3.6,2,3.7,2,5.2,1
2020/10/22 5:50,3.6,2,3.6,2,6.1,2
2020/10/22 5:51,3.6,1,3.6,2,4.5,1
2020/10/22 5:52,3.6,1,3.6,2,4.8,2
2020/10/22 5:53,3.5,1,3.6,2,4.5,1
2020/10/22 5:54,3.3,1,3.5,2,4.2,2
2020/10/22 5:55,3.2,1,3.3,2,4.7,1
2020/10/22 5:56,3.1,1,3.2,2,4.1,2
2020/10/22 5:57,3,1,3.1,2,4.9,1
2020/10/22 5:58,2.9,1,3,2,3.5,1
2020/10/22 5:59,2.7,1,2.9,2,3.6,1
2020/10/22 6:00,2.7,1,2.8,2,4.2,1
2020/10/22 6:01,2.6,1,2.7,1,4.7,2
2020/10/22 6:02,2.5,1,2.6,1,3.8,2
2020/10/22 6:03,2.6,1,2.6,1,4.4,1
2020/10/22 6:04,2.6,1,2.6,1,4.2,2
2020/10/22 6:05,2.7,1,2.7,1,4.7,1
2020/10/22 6:06,2.6,1,2.7,1,3.1,2
2020/10/22 6:07,2.4,1,2.6,1,2.9,1
2020/10/22 6:08,2.4,1,2.4,1,3.6,2
2020/10/22 6:09,2.4,1,2.4,1,2.6,2
2020/10/22 6:10,2.4,1,2.4,1,3.3,15
2020/10/22 6:11,2.4,1,2.4,1,3.9,2
2020/10/22 6:12,2.4,1,2.4,1,4.2,1
2020/10/22 6:13,2.4,1,2.5,1,4.4,2
2020/10/22 6:14,2.5,1,2.5,1,4.7,1
2020/10/22 6:15,2.4,1,2.4,1,4.4,2
2020/10/22 6:16,2.5,1,2.5,1,5.1,2
2020/10/22 6:17,2.6,1,2.6,1,3.5,16
2020/10/22 6:18,2.6,1,2.6,1,3.3,16
2020/10/22 6:19,2.7,1,2.7,1,3.7,1
2020/10/22 6:20,2.6,1,2.7,1,3.2,16
2020/10/22 6:21,2.6,1,2.6,1,3,2
2020/10/22 6:22,2.6,1,2.6,1,3.9,1
2020/10/22 6:23,2.5,1,2.6,1,3.7,1
2020/10/22 6:24,2.5,1,2.5,1,4.2,2
2020/10/22 6:25,2.4,1,2.5,1,3.1,2
2020/10/22 6:26,2.4,1,2.4,1,3.8,2
2020/10/22 6:27,2.4,1,2.4,1,4.2,2
2020/10/22 6:28,2.3,1,2.4,1,3.2,1
2020/10/22 6:29,2.3,1,2.3,1,4.1,1
2020/10/22 6:30,2.4,1,2.4,1,4.1,16
2020/10/22 6:31,2.4,1,2.4,1,4.4,16
2020/10/22 6:32,2.4,1,2.4,1,3.7,16
2020/10/22 6:33,2.4,1,2.4,1,3.6,2
2020/10/22 6:34,2.4,1,2.5,1,3.1,16
2020/10/22 6:35,2.4,1,2.4,1,3.5,1
2020/10/22 6:36,2.4,1,2.4,1,3.7,1
2020/10/22 6:37,2.3,1,2.4,1,3.7,1
2020/10/22 6:38,2.4,1,2.4,1,3.7,1
2020/10/22 6:39,2.4,1,2.4,1,3.1,2
2020/10/22 6:40,2.4,1,2.4,1,3.5,16
2020/10/22 6:41,2.2,1,2.4,1,3.2,2
2020/10/22 6:42,2.3,1,2.3,1,3.8,16
2020/10/22 6:43,2.3,1,2.3,1,3.6,2
2020/10/22 6:44,2.3,1,2.3,1,3.6,2
2020/10/22 6:45,2.2,1,2.3,1,3.1,15
2020/10/22 6:46,2.2,1,2.2,1,3.5,2
2020/10/22 6:47,2.1,1,2.2,1,3.3,1
2020/10/22 6:48,2.1,1,2.1,1,3.3,1
2020/10/22 6:49,2,1,2.1,1,2.2,1
2020/10/22 6:50,2,1,2,1,3.5,2
2020/10/22 6:51,2.1,1,2.1,1,3.6,2
2020/10/22 6:52,2,1,2.1,1,3.6,2
2020/10/22 6:53,1.9,1,2,1,2.6,2
2020/10/22 6:54,1.8,1,1.9,1,2.7,1
2020/10/22 6:55,1.8,1,1.8,1,2.6,2
2020/10/22 6:56,1.9,1,1.9,1,3.9,2
2020/10/22 6:57,1.8,1,1.9,1,1.3,1
2020/10/22 6:58,1.7,1,1.8,1,2.1,1
2020/10/22 6:59,1.7,1,1.7,1,2.2,16
2020/10/22 7:00,1.6,1,1.7,1,3.8,2
2020/10/22 7:01,1.7,1,1.7,1,3.9,2
2020/10/22 7:02,1.6,1,1.7,1,3,16
2020/10/22 7:03,1.8,1,1.8,1,4.3,16
2020/10/22 7:04,1.9,1,1.9,1,3.8,1
2020/10/22 7:05,2,16,2,1,4.3,16
2020/10/22 7:06,2,16,2,1,3.9,16
2020/10/22 7:07,2,16,2,1,2,1
2020/10/22 7:08,2.1,16,2.1,16,3.1,15
2020/10/22 7:09,2.2,16,2.2,16,3.8,16
2020/10/22 7:10,2.3,16,2.3,16,3.7,16
2020/10/22 7:11,2.2,16,2.3,16,3.3,1
2020/10/22 7:12,2.3,16,2.3,16,4.4,1
2020/10/22 7:13,2.3,1,2.3,16,5.1,2
2020/10/22 7:14,2.4,1,2.4,1,4.4,1
2020/10/22 7:15,2.3,1,2.4,1,3.1,2
2020/10/22 7:16,2.3,1,2.3,1,3.8,1
2020/10/22 7:17,2.4,1,2.4,1,3.2,1
2020/10/22 7:18,2.4,1,2.5,1,3.7,1
2020/10/22 7:19,2.4,1,2.4,1,3.3,1
2020/10/22 7:20,2.4,1,2.4,1,3.2,15
2020/10/22 7:21,2.4,1,2.4,1,3.3,1
2020/10/22 7:22,2.3,1,2.3,1,2.7,3
2020/10/22 7:23,2.1,1,2.3,1,2.5,2
2020/10/22 7:24,2,1,2.1,1,3,2
2020/10/22 7:25,1.9,1,2,1,2,1
2020/10/22 7:26,1.8,1,1.9,1,2.2,16
2020/10/22 7:27,1.7,1,1.8,1,2.5,1
2020/10/22 7:28,1.6,1,1.7,1,2.1,1
2020/10/22 7:29,1.5,1,1.6,1,1.5,16
2020/10/22 7:30,1.4,1,1.5,1,1.9,1
2020/10/22 7:31,1.3,1,1.4,1,1.3,1
2020/10/22 7:32,1.2,1,1.3,1,0.9,2
2020/10/22 7:33,1.1,1,1.2,1,1.9,2
2020/10/22 7:34,1,1,1.1,1,1.4,2
2020/10/22 7:35,1,1,1,1,1.4,2
2020/10/22 7:36,0.9,1,1,1,1.1,2
2020/10/22 7:37,0.8,1,0.8,1,1,2
2020/10/22 7:38,0.7,1,0.8,1,0.3,12
2020/10/22 7:39,0.6,1,0.6,1,0.9,15
2020/10/22 7:40,0.6,1,0.6,1,1.9,15
2020/10/22 7:41,0.7,1,0.7,1,3.9,16
2020/10/22 7:42,0.8,1,0.8,1,2.1,2
2020/10/22 7:43,0.7,1,0.8,1,1.9,1
2020/10/22 7:44,0.8,1,0.8,1,1.6,3
2020/10/22 7:45,0.8,1,0.8,1,1.6,2
2020/10/22 7:46,0.9,1,0.9,1,1.8,1
2020/10/22 7:47,0.9,1,0.9,1,1.8,3
2020/10/22 7:48,1,2,1,2,2.6,3
2020/10/22 7:49,1.1,2,1.1,2,2.2,2
2020/10/22 7:50,1.2,2,1.2,2,2.7,1
2020/10/22 7:51,1.1,2,1.1,2,2.5,16
2020/10/22 7:52,1.1,2,1.1,2,2.4,3
2020/10/22 7:53,1.2,2,1.2,2,2.2,1
2020/10/22 7:54,1.2,2,1.2,2,2.6,2
2020/10/22 7:55,1.2,2,1.2,2,2.2,1
2020/10/22 7:56,1.2,2,1.2,2,1.9,2
2020/10/22 7:57,1.3,2,1.3,2,2.1,3
2020/10/22 7:58,1.2,2,1.3,2,1.6,16
2020/10/22 7:59,1.3,2,1.3,2,2.2,2
2020/10/22 8:00,1.2,2,1.3,2,1.6,2
2020/10/22 8:01,1.2,2,1.2,2,1.4,2
2020/10/22 8:02,1,2,1.2,2,1,6
2020/10/22 8:03,1,2,1,2,1,1
2020/10/22 8:04,0.9,2,0.9,2,0.6,6
2020/10/22 8:05,0.8,3,0.9,2,0.6,4
2020/10/22 8:06,0.7,3,0.8,2,0.9,8
2020/10/22 8:07,0.6,4,0.7,2,0.9,7
2020/10/22 8:08,0.6,5,0.6,2,0.4,11
2020/10/22 8:09,0.5,7,0.6,2,1.1,9
2020/10/22 8:10,0.3,8,0.4,2,0.9,10
2020/10/22 8:11,0.3,9,0.4,2,0.9,8
2020/10/22 8:12,0.3,9,0.4,2,0.5,10
2020/10/22 8:13,0.4,9,0.4,2,1,9
2020/10/22 8:14,0.4,10,0.4,2,1.6,10
2020/10/22 8:15,0.5,10,0.5,3,1.5,11
2020/10/22 8:16,0.5,10,0.5,4,1.1,12
2020/10/22 8:17,0.5,11,0.5,5,1.3,10
2020/10/22 8:18,0.6,10,0.6,5,1.1,11
2020/10/22 8:19,0.6,10,0.7,10,1.1,10
2020/10/22 8:20,0.7,10,0.7,10,0.9,13
2020/10/22 8:21,0.7,11,0.7,10,1.6,15
2020/10/22 8:22,0.8,11,0.8,11,1.3,14
2020/10/22 8:23,0.7,12,0.8,11,0.1,14
2020/10/22 8:24,0.6,12,0.7,11,0.1,13
2020/10/22 8:25,0.5,12,0.6,11,0.1,13
2020/10/22 8:26,0.5,12,0.5,11,0.1,12
2020/10/22 8:27,0.4,12,0.5,11,0.1,11
2020/10/22 8:28,0.3,12,0.4,11,0.1,8
2020/10/22 8:29,0.2,13,0.3,11,0.3,1
2020/10/22 8:30,0.2,13,0.2,11,0.3,1
2020/10/22 8:31,0.1,13,0.2,11,0.1,1
2020/10/22 8:32,0,13,0.1,11,0.1,15
2020/10/22 8:33,0,14,0,12,0.1,13
2020/10/22 8:34,0,13,0,12,0.1,2
2020/10/22 8:35,0,4,0,12,0.1,8
2020/10/22 8:36,0,2,0,12,0.1,16
2020/10/22 8:37,0,2,0,12,0.3,14
2020/10/22 8:38,0,1,0,12,0.3,16
2020/10/22 8:39,0.1,16,0.1,13,0.9,16
2020/10/22 8:40,0.1,16,0.1,13,1.3,16
2020/10/22 8:41,0.2,16,0.2,16,0.5,4
2020/10/22 8:42,0.2,1,0.2,16,0.8,3
2020/10/22 8:43,0.2,1,0.2,16,0.8,3
2020/10/22 8:44,0.3,1,0.3,1,0.8,1
2020/10/22 8:45,0.4,1,0.4,1,1.4,2
2020/10/22 8:46,0.5,2,0.5,2,1.3,5
2020/10/22 8:47,0.5,2,0.5,2,0.8,4
2020/10/22 8:48,0.6,2,0.6,2,0.9,3
2020/10/22 8:49,0.6,3,0.6,2,1,3
2020/10/22 8:50,0.5,3,0.6,2,0.8,16
2020/10/22 8:51,0.6,3,0.6,2,2.1,2
2020/10/22 8:52,0.8,3,0.8,3,3.1,1
2020/10/22 8:53,0.9,2,0.9,2,3.5,1
2020/10/22 8:54,1.1,2,1.1,2,5.4,1
2020/10/22 8:55,1.2,2,1.2,2,3.6,2
2020/10/22 8:56,1.3,2,1.3,2,3.3,3
2020/10/22 8:57,1.5,2,1.5,2,3.2,2
2020/10/22 8:58,1.6,2,1.6,2,3.6,3
2020/10/22 8:59,1.7,2,1.7,2,3.9,2
2020/10/22 9:00,1.9,2,1.9,2,3.3,1
2020/10/22 9:01,2,2,2,2,4.9,1
2020/10/22 9:02,2.1,2,2.1,2,4.2,1
2020/10/22 9:03,2.2,2,2.2,2,4.2,1
2020/10/22 9:04,2.4,2,2.4,2,4.9,2
2020/10/22 9:05,2.4,2,2.4,2,3.9,2
2020/10/22 9:06,2.4,2,2.4,2,3.5,2
2020/10/22 9:07,2.4,2,2.4,2,2.1,1
2020/10/22 9:08,2.5,2,2.5,2,5,2
2020/10/22 9:09,2.4,2,2.5,2,2.7,2
2020/10/22 9:10,2.5,2,2.5,2,4.4,2
2020/10/22 9:11,2.4,2,2.5,2,3.5,2
2020/10/22 9:12,2.4,2,2.4,2,3.3,3
2020/10/22 9:13,2.3,2,2.4,2,3.1,2
2020/10/22 9:14,2,2,2.2,2,2.2,3
2020/10/22 9:15,2,2,2,2,3.7,3
2020/10/22 9:16,2,2,2,2,3.2,3
2020/10/22 9:17,2.1,2,2.1,2,4.5,3
2020/10/22 9:18,2.2,2,2.2,2,5,3
2020/10/22 9:19,2.3,2,2.3,2,4.7,3
2020/10/22 9:20,2.4,2,2.4,2,3.9,3
2020/10/22 9:21,2.4,2,2.5,2,3.9,3
2020/10/22 9:22,2.5,2,2.5,2,3.8,5
2020/10/22 9:23,2.5,3,2.5,2,3.9,5
2020/10/22 9:24,2.5,3,2.5,2,2.2,2
2020/10/22 9:25,2.4,2,2.5,2,3,2
2020/10/22 9:26,2.5,2,2.5,2,6.2,2
2020/10/22 9:27,2.5,2,2.5,2,4.8,3
2020/10/22 9:28,2.4,2,2.5,2,4.4,3
2020/10/22 9:29,2.3,2,2.4,2,3.5,3
2020/10/22 9:30,2.2,2,2.3,2,3,1
2020/10/22 9:31,2.1,2,2.1,2,3.2,2
2020/10/22 9:32,2.2,2,2.2,2,4.1,3
2020/10/22 9:33,2.2,2,2.2,3,3.7,2
2020/10/22 9:34,2.3,2,2.3,3,4.3,2
2020/10/22 9:35,2.5,2,2.5,2,5.5,2
2020/10/22 9:36,2.6,2,2.6,2,5,3
2020/10/22 9:37,2.6,2,2.6,2,4.3,3
2020/10/22 9:38,2.7,2,2.7,2,5.7,3
2020/10/22 9:39,2.8,2,2.8,2,4.8,1
2020/10/22 9:40,2.8,2,2.8,2,3,2
2020/10/22 9:41,2.7,2,2.8,2,3.7,3
2020/10/22 9:42,2.7,2,2.8,2,4.1,3
2020/10/22 9:43,2.7,2,2.8,2,3.5,3
2020/10/22 9:44,2.8,2,2.8,2,4.1,1
2020/10/22 9:45,2.6,2,2.8,2,3.5,2
2020/10/22 9:46,2.5,2,2.6,2,3.3,2
2020/10/22 9:47,2.4,2,2.4,2,3.3,2
2020/10/22 9:48,2.3,2,2.4,2,4.3,3
2020/10/22 9:49,2.2,2,2.3,2,3.9,1
2020/10/22 9:50,2.3,2,2.3,2,3.9,1
2020/10/22 9:51,2.6,2,2.6,2,6,1
2020/10/22 9:52,2.6,2,2.6,2,5.7,2
2020/10/22 9:53,2.7,2,2.7,2,4.7,1
2020/10/22 9:54,2.7,2,2.7,2,5.4,1
2020/10/22 9:55,2.9,2,2.9,2,7.1,1
2020/10/22 9:56,3.1,2,3.1,2,6.1,3
2020/10/22 9:57,3.3,2,3.3,2,7.9,2
2020/10/22 9:58,3.4,2,3.5,2,6.4,1
2020/10/22 9:59,3.5,2,3.5,2,4.5,3
2020/10/22 10:00,3.5,2,3.5,2,5.1,2
2020/10/22 10:01,3.3,2,3.5,2,6,1
2020/10/22 10:02,3.3,2,3.3,2,4.7,2
2020/10/22 10:03,3.3,2,3.4,2,4.9,2
2020/10/22 10:04,3.3,2,3.3,2,4.4,4
2020/10/22 10:05,3.3,2,3.3,2,6.1,3
2020/10/22 10:06,3.1,2,3.3,2,5.2,3
2020/10/22 10:07,3,2,3.2,2,4.8,2
2020/10/22 10:08,3,2,3,2,5.2,2
2020/10/22 10:09,2.9,2,3,2,4.7,1
2020/10/22 10:10,2.9,2,2.9,2,4.5,2
2020/10/22 10:11,2.9,2,2.9,2,4.5,2
2020/10/22 10:12,2.9,2,2.9,2,5.4,1
2020/10/22 10:13,2.8,2,2.9,2,5.1,2
2020/10/22 10:14,2.8,2,2.8,2,4.4,1
2020/10/22 10:15,2.7,2,2.8,2,4.7,1
2020/10/22 10:16,2.8,2,2.8,2,5.6,2
2020/10/22 10:17,2.9,2,2.9,2,5,2
2020/10/22 10:18,2.8,2,2.9,2,3.6,2
2020/10/22 10:19,2.7,2,2.8,2,5.4,1
2020/10/22 10:20,2.9,2,2.9,2,5.1,3
2020/10/22 10:21,2.9,2,2.9,2,5.5,3
2020/10/22 10:22,2.9,2,2.9,2,4.5,1
2020/10/22 10:23,3,2,3,2,5.1,1
2020/10/22 10:24,2.9,2,3,2,4.5,1
2020/10/22 10:25,3.2,2,3.2,2,8.3,1
2020/10/22 10:26,3.1,2,3.2,2,5,2
2020/10/22 10:27,3,2,3.1,2,3.3,2
2020/10/22 10:28,3,2,3,2,4.5,2
2020/10/22 10:29,3,2,3,2,4.3,2
2020/10/22 10:30,2.9,2,3,2,3.7,2
2020/10/22 10:31,2.8,2,2.9,2,3.7,1
2020/10/22 10:32,2.8,2,2.8,2,4.7,2
2020/10/22 10:33,2.7,2,2.8,2,3.9,3
2020/10/22 10:34,2.7,2,2.7,2,3.5,3
2020/10/22 10:35,2.4,2,2.6,2,3.7,3
2020/10/22 10:36,2.5,2,2.5,2,6.4,2
2020/10/22 10:37,2.6,2,2.6,2,5,2
2020/10/22 10:38,2.6,2,2.6,2,4.9,2
2020/10/22 10:39,2.7,2,2.7,2,4.9,2
2020/10/22 10:40,2.8,2,2.8,2,4.4,2
2020/10/22 10:41,2.8,2,2.8,2,5.4,1
2020/10/22 10:42,2.8,2,2.8,2,4.5,2
2020/10/22 10:43,2.8,2,2.8,2,5.2,1
2020/10/22 10:44,2.9,2,2.9,2,4.4,3
2020/10/22 10:45,3,2,3,2,6.7,2
2020/10/22 10:46,2.9,2,3,2,4.4,4
2020/10/22 10:47,3,2,3,2,5.5,1
2020/10/22 10:48,3.1,2,3.1,2,6.7,3
2020/10/22 10:49,3.1,2,3.2,2,5.8,3
2020/10/22 10:50,3.1,2,3.1,2,5.1,3
2020/10/22 10:51,3.1,2,3.1,2,5.1,2
2020/10/22 10:52,3.1,2,3.1,2,4.7,2
2020/10/22 10:53,3.2,2,3.3,2,5.1,2
2020/10/22 10:54,3.2,2,3.2,2,5.4,2
2020/10/22 10:55,3.2,2,3.3,2,5.6,1
2020/10/22 10:56,3.2,2,3.2,2,5.5,2
2020/10/22 10:57,3.1,2,3.2,2,5.8,2
2020/10/22 10:58,3,2,3.1,2,5.1,2
2020/10/22 10:59,3,2,3,2,5.1,2
2020/10/22 11:00,3,2,3.1,2,4.7,2
2020/10/22 11:01,3.1,2,3.2,2,6.2,1
2020/10/22 11:02,3.1,2,3.1,2,6.1,3
2020/10/22 11:03,3.1,2,3.2,2,5.5,1
2020/10/22 11:04,3.2,2,3.2,2,5.2,2
2020/10/22 11:05,3.3,2,3.3,2,6,2
2020/10/22 11:06,3.4,2,3.4,2,6.2,2
2020/10/22 11:07,3.5,2,3.5,2,6.2,1
2020/10/22 11:08,3.5,2,3.5,2,5,2
2020/10/22 11:09,3.6,2,3.6,2,5.7,1
2020/10/22 11:10,3.7,2,3.7,2,5.8,2
2020/10/22 11:11,3.8,2,3.8,2,8.6,2
2020/10/22 11:12,3.9,2,3.9,2,7.1,1
2020/10/22 11:13,3.9,2,3.9,2,6.8,2
2020/10/22 11:14,3.9,2,3.9,2,6.4,1
2020/10/22 11:15,3.8,2,3.9,2,6.1,1
2020/10/22 11:16,3.8,2,3.9,2,5.6,1
2020/10/22 11:17,3.8,2,3.8,2,6.7,2
2020/10/22 11:18,3.8,2,3.8,2,6.1,1
2020/10/22 11:19,3.8,2,3.8,2,5.6,2
2020/10/22 11:20,3.8,2,3.8,2,6,2
2020/10/22 11:21,3.8,2,3.8,2,7.2,2
2020/10/22 11:22,3.8,2,3.8,2,6.3,1
2020/10/22 11:23,3.8,2,3.8,2,5.2,2
2020/10/22 11:24,3.8,2,3.8,2,6.3,1
2020/10/22 11:25,3.9,2,3.9,2,7.4,3
2020/10/22 11:26,3.8,2,3.9,2,7.5,2
2020/10/22 11:27,3.9,2,3.9,2,5.7,2
2020/10/22 11:28,3.9,2,3.9,2,7.8,2
2020/10/22 11:29,3.8,2,3.9,2,5.7,2